Year,Month,Day,Hour,Minute,Value (Times are PST for temperature in C)
2013,07,27,10,01,15.60
2013,07,27,10,02,15.60
2013,07,27,10,03,15.70
2013,07,27,10,04,15.80
2013,07,27,10,05,15.80
2013,07,27,10,06,15.80
2013,07,27,10,07,15.80
2013,07,27,10,08,15.80
2013,07,27,10,09,15.80
2013,07,27,10,10,15.80
2013,07,27,10,11,15.80
2013,07,27,10,12,15.80
2013,07,27,10,13,15.80
2013,07,27,10,14,15.80
2013,07,27,10,15,15.80
2013,07,27,10,16,15.90
2013,07,27,10,17,15.90
2013,07,27,10,18,16.10
2013,07,27,10,19,16.10
2013,07,27,10,20,16.10
2013,07,27,10,21,16.20
2013,07,27,10,22,16.30
2013,07,27,10,23,16.30
2013,07,27,10,24,16.30
2013,07,27,10,25,16.30
2013,07,27,10,26,16.30
2013,07,27,10,27,16.30
2013,07,27,10,28,16.40
2013,07,27,10,29,16.40
2013,07,27,10,30,16.40
2013,07,27,10,31,16.40
2013,07,27,10,32,16.50
2013,07,27,10,33,16.60
2013,07,27,10,34,16.60
2013,07,27,10,35,16.70
2013,07,27,10,36,16.70
2013,07,27,10,37,16.70
2013,07,27,10,38,16.70
2013,07,27,10,39,16.70
2013,07,27,10,40,16.70
2013,07,27,10,41,16.80
2013,07,27,10,42,16.80
2013,07,27,10,43,16.90
2013,07,27,10,44,16.90
2013,07,27,10,45,17.00
2013,07,27,10,46,17.00
2013,07,27,10,47,17.00
2013,07,27,10,48,17.00
2013,07,27,10,49,17.00
2013,07,27,10,50,17.00
2013,07,27,10,51,17.10
2013,07,27,10,52,17.10
2013,07,27,10,53,17.20
2013,07,27,10,54,17.20
2013,07,27,10,55,17.20
2013,07,27,10,56,17.20
2013,07,27,10,57,17.20
2013,07,27,10,58,17.20
2013,07,27,10,59,17.30
2013,07,27,11,00,17.30
2013,07,27,11,01,17.30
2013,07,27,11,02,17.30
2013,07,27,11,03,17.30
2013,07,27,11,04,17.30
2013,07,27,11,05,17.30
2013,07,27,11,06,17.30
2013,07,27,11,07,17.30
2013,07,27,11,08,17.30
2013,07,27,11,09,17.30
2013,07,27,11,10,17.30
2013,07,27,11,11,17.30
2013,07,27,11,12,17.30
2013,07,27,11,13,17.30
2013,07,27,11,14,17.30
2013,07,27,11,15,17.30
2013,07,27,11,16,17.30
2013,07,27,11,17,17.30
2013,07,27,11,18,17.20
2013,07,27,11,19,17.20
2013,07,27,11,20,17.20
2013,07,27,11,21,17.20
2013,07,27,11,22,17.20
2013,07,27,11,23,17.20
2013,07,27,11,24,17.30
2013,07,27,11,25,17.30
2013,07,27,11,26,17.40
2013,07,27,11,27,17.50
2013,07,27,11,28,17.50
2013,07,27,11,29,17.50
2013,07,27,11,30,17.50
2013,07,27,11,31,17.50
2013,07,27,11,32,17.50
2013,07,27,11,33,17.50
2013,07,27,11,34,17.50
2013,07,27,11,35,17.50
2013,07,27,11,36,17.50
2013,07,27,11,37,17.50
2013,07,27,11,38,17.60
2013,07,27,11,39,17.60
2013,07,27,11,40,17.60
2013,07,27,11,41,17.70
2013,07,27,11,42,17.70
2013,07,27,11,43,17.70
2013,07,27,11,44,17.80
2013,07,27,11,45,17.80
2013,07,27,11,46,17.80
2013,07,27,11,47,17.80
2013,07,27,11,48,17.80
2013,07,27,11,49,17.70
2013,07,27,11,50,17.70
2013,07,27,11,51,17.70
2013,07,27,11,52,17.80
2013,07,27,11,53,17.80
2013,07,27,11,54,17.80
2013,07,27,11,55,17.80
2013,07,27,11,56,17.80
2013,07,27,11,57,17.90
2013,07,27,11,58,17.90
2013,07,27,11,59,17.90
2013,07,27,12,00,17.90
2013,07,27,12,01,17.90
2013,07,27,12,02,17.90
2013,07,27,12,03,17.90
2013,07,27,12,04,18.00
2013,07,27,12,05,18.10
2013,07,27,12,06,18.10
2013,07,27,12,07,18.20
2013,07,27,12,08,18.30
2013,07,27,12,09,18.40
2013,07,27,12,10,18.50
2013,07,27,12,11,18.50
2013,07,27,12,12,18.40
2013,07,27,12,13,18.50
2013,07,27,12,14,18.70
2013,07,27,12,15,18.80
2013,07,27,12,16,18.90
2013,07,27,12,17,19.00
2013,07,27,12,18,19.10
2013,07,27,12,19,19.20
2013,07,27,12,20,19.20
2013,07,27,12,21,19.30
2013,07,27,12,22,19.30
2013,07,27,12,23,19.30
2013,07,27,12,24,19.30
2013,07,27,12,25,19.30
2013,07,27,12,26,19.30
2013,07,27,12,27,19.20
2013,07,27,12,28,19.20
2013,07,27,12,29,19.20
2013,07,27,12,30,19.30
2013,07,27,12,31,19.30
2013,07,27,12,32,19.30
2013,07,27,12,33,19.40
2013,07,27,12,34,19.40
2013,07,27,12,35,19.50
2013,07,27,12,36,19.60
2013,07,27,12,37,19.80
2013,07,27,12,38,19.90
2013,07,27,12,39,20.00
2013,07,27,12,40,20.10
2013,07,27,12,41,20.30
2013,07,27,12,42,20.50
2013,07,27,12,43,20.70
2013,07,27,12,44,20.80
2013,07,27,12,45,20.70
2013,07,27,12,46,20.70
2013,07,27,12,47,20.60
2013,07,27,12,48,20.60
2013,07,27,12,49,20.50
2013,07,27,12,50,20.50
2013,07,27,12,51,20.50
2013,07,27,12,52,20.50
2013,07,27,12,53,20.50
2013,07,27,12,54,20.50
2013,07,27,12,55,20.50
2013,07,27,12,56,20.50
2013,07,27,12,57,20.60
2013,07,27,12,58,20.60
2013,07,27,12,59,20.60
2013,07,27,13,00,20.60
2013,07,27,13,01,20.60
2013,07,27,13,02,20.60
2013,07,27,13,03,20.70
2013,07,27,13,04,20.90
2013,07,27,13,05,21.00
2013,07,27,13,06,21.10
2013,07,27,13,07,21.10
2013,07,27,13,08,21.30
2013,07,27,13,09,21.30
2013,07,27,13,10,21.40
2013,07,27,13,11,21.50
2013,07,27,13,12,21.60
2013,07,27,13,13,21.60
2013,07,27,13,14,21.60
2013,07,27,13,15,21.40
2013,07,27,13,16,21.50
2013,07,27,13,17,21.50
2013,07,27,13,18,21.40
2013,07,27,13,19,21.30
2013,07,27,13,20,21.30
2013,07,27,13,21,21.30
2013,07,27,13,22,21.30
2013,07,27,13,23,21.30
2013,07,27,13,24,21.30
2013,07,27,13,25,21.30
2013,07,27,13,26,21.30
2013,07,27,13,27,21.30
2013,07,27,13,28,21.30
2013,07,27,13,29,21.20
2013,07,27,13,30,21.20
2013,07,27,13,31,21.30
2013,07,27,13,32,21.40
2013,07,27,13,33,21.30
2013,07,27,13,34,21.30
2013,07,27,13,35,21.30
2013,07,27,13,36,21.20
2013,07,27,13,37,21.10
2013,07,27,13,38,21.10
2013,07,27,13,39,21.10
2013,07,27,13,40,21.10
2013,07,27,13,41,21.10
2013,07,27,13,42,21.10
2013,07,27,13,43,21.10
2013,07,27,13,44,21.20
2013,07,27,13,45,21.20
2013,07,27,13,46,21.20
2013,07,27,13,47,21.30
2013,07,27,13,48,21.30
2013,07,27,13,49,21.30
2013,07,27,13,50,21.30
2013,07,27,13,51,21.30
2013,07,27,13,52,21.40
2013,07,27,13,53,21.60
2013,07,27,13,54,21.60
2013,07,27,13,55,21.60
2013,07,27,13,56,21.60
2013,07,27,13,57,21.50
2013,07,27,13,58,21.60
2013,07,27,13,59,21.60
2013,07,27,14,00,21.90
2013,07,27,14,01,22.00
2013,07,27,14,02,22.00
2013,07,27,14,03,22.00
2013,07,27,14,04,21.90
2013,07,27,14,05,21.80
2013,07,27,14,06,21.80
2013,07,27,14,07,21.70
2013,07,27,14,08,21.60
2013,07,27,14,09,21.70
2013,07,27,14,10,21.70
2013,07,27,14,11,21.70
2013,07,27,14,12,21.70
2013,07,27,14,13,21.80
2013,07,27,14,14,21.90
2013,07,27,14,15,21.80
2013,07,27,14,16,21.80
2013,07,27,14,17,21.90
2013,07,27,14,18,21.90
2013,07,27,14,19,21.90
2013,07,27,14,20,21.90
2013,07,27,14,21,21.80
2013,07,27,14,22,21.80
2013,07,27,14,23,21.90
2013,07,27,14,24,22.00
2013,07,27,14,25,22.00
2013,07,27,14,26,22.10
2013,07,27,14,27,22.10
2013,07,27,14,28,22.20
2013,07,27,14,29,22.30
2013,07,27,14,30,22.40
2013,07,27,14,31,22.40
2013,07,27,14,32,22.50
2013,07,27,14,33,22.50
2013,07,27,14,34,22.50
2013,07,27,14,35,22.50
2013,07,27,14,36,22.40
2013,07,27,14,37,22.50
2013,07,27,14,38,22.50
2013,07,27,14,39,22.50
2013,07,27,14,40,22.40
2013,07,27,14,41,22.40
2013,07,27,14,42,22.40
2013,07,27,14,43,22.50
2013,07,27,14,44,22.60
2013,07,27,14,45,22.60
2013,07,27,14,46,22.70
2013,07,27,14,47,22.70
2013,07,27,14,48,22.80
2013,07,27,14,49,22.80
2013,07,27,14,50,22.70
2013,07,27,14,51,22.60
2013,07,27,14,52,22.50
2013,07,27,14,53,22.40
2013,07,27,14,54,22.40
2013,07,27,14,55,22.40
2013,07,27,14,56,22.50
2013,07,27,14,57,22.60
2013,07,27,14,58,22.80
2013,07,27,14,59,22.90
2013,07,27,15,00,22.90
2013,07,27,15,01,22.90
2013,07,27,15,02,22.80
2013,07,27,15,03,22.70
2013,07,27,15,04,22.60
2013,07,27,15,05,22.50
2013,07,27,15,06,22.40
2013,07,27,15,07,22.40
2013,07,27,15,08,22.30
2013,07,27,15,09,22.30
2013,07,27,15,10,22.40
2013,07,27,15,11,22.60
2013,07,27,15,12,22.60
2013,07,27,15,13,22.50
2013,07,27,15,14,22.40
2013,07,27,15,15,22.30
2013,07,27,15,16,22.10
2013,07,27,15,17,22.00
2013,07,27,15,18,22.00
2013,07,27,15,19,22.00
2013,07,27,15,20,22.00
2013,07,27,15,21,22.00
2013,07,27,15,22,22.00
2013,07,27,15,23,22.00
2013,07,27,15,24,22.00
2013,07,27,15,25,22.10
2013,07,27,15,26,22.10
2013,07,27,15,27,22.10
2013,07,27,15,28,22.20
2013,07,27,15,29,22.30
2013,07,27,15,30,22.30
2013,07,27,15,31,22.30
2013,07,27,15,32,22.30
2013,07,27,15,33,22.40
2013,07,27,15,34,22.50
2013,07,27,15,35,22.50
2013,07,27,15,36,22.40
2013,07,27,15,37,22.30
2013,07,27,15,38,22.20
2013,07,27,15,39,22.10
2013,07,27,15,40,22.00
2013,07,27,15,41,22.00
2013,07,27,15,42,22.00
2013,07,27,15,43,22.00
2013,07,27,15,44,22.00
2013,07,27,15,45,22.10
2013,07,27,15,46,22.20
2013,07,27,15,47,22.30
2013,07,27,15,48,22.40
2013,07,27,15,49,22.40
2013,07,27,15,50,22.40
2013,07,27,15,51,22.50
2013,07,27,15,52,22.50
2013,07,27,15,53,22.60
2013,07,27,15,54,22.60
2013,07,27,15,55,22.60
2013,07,27,15,56,22.60
2013,07,27,15,57,22.60
2013,07,27,15,58,22.60
2013,07,27,15,59,22.60
2013,07,27,16,00,22.50
2013,07,27,16,01,22.60
2013,07,27,16,02,22.70
2013,07,27,16,03,22.70
2013,07,27,16,04,22.70
2013,07,27,16,05,22.70
2013,07,27,16,06,22.70
2013,07,27,16,07,22.80
2013,07,27,16,08,22.80
2013,07,27,16,09,22.80
2013,07,27,16,10,22.80
2013,07,27,16,11,22.80
2013,07,27,16,12,22.90
2013,07,27,16,13,22.90
2013,07,27,16,14,22.90
2013,07,27,16,15,22.90
2013,07,27,16,16,22.90
2013,07,27,16,17,23.00
2013,07,27,16,18,23.10
2013,07,27,16,19,23.00
2013,07,27,16,20,23.00
2013,07,27,16,21,23.10
2013,07,27,16,22,23.10
2013,07,27,16,23,23.10
2013,07,27,16,24,23.10
2013,07,27,16,25,23.00
2013,07,27,16,26,22.90
2013,07,27,16,27,22.90
2013,07,27,16,28,22.90
2013,07,27,16,29,22.90
2013,07,27,16,30,23.10
2013,07,27,16,31,23.10
2013,07,27,16,32,23.10
2013,07,27,16,33,23.00
2013,07,27,16,34,22.90
2013,07,27,16,35,22.90
2013,07,27,16,36,22.90
2013,07,27,16,37,22.90
2013,07,27,16,38,22.80
2013,07,27,16,39,22.80
2013,07,27,16,40,22.70
2013,07,27,16,41,22.60
2013,07,27,16,42,22.60
2013,07,27,16,43,22.50
2013,07,27,16,44,22.40
2013,07,27,16,45,22.40
2013,07,27,16,46,22.40
2013,07,27,16,47,22.30
2013,07,27,16,48,22.30
2013,07,27,16,49,22.30
2013,07,27,16,50,22.20
2013,07,27,16,51,22.20
2013,07,27,16,52,22.20
2013,07,27,16,53,22.20
2013,07,27,16,54,22.20
2013,07,27,16,55,22.20
2013,07,27,16,56,22.20
2013,07,27,16,57,22.20
2013,07,27,16,58,22.10
2013,07,27,16,59,22.10
2013,07,27,17,00,22.20
2013,07,27,17,01,22.20
2013,07,27,17,02,22.30
2013,07,27,17,03,22.40
2013,07,27,17,04,22.50
2013,07,27,17,05,22.60
2013,07,27,17,06,22.70
2013,07,27,17,07,22.70
2013,07,27,17,08,22.60
2013,07,27,17,09,22.60
2013,07,27,17,10,22.60
2013,07,27,17,11,22.50
2013,07,27,17,12,22.50
2013,07,27,17,13,22.50
2013,07,27,17,14,22.50
2013,07,27,17,15,22.50
2013,07,27,17,16,22.60
2013,07,27,17,17,22.60
2013,07,27,17,18,22.70
2013,07,27,17,19,22.90
2013,07,27,17,20,22.90
2013,07,27,17,21,23.10
2013,07,27,17,22,23.10
2013,07,27,17,23,23.10
2013,07,27,17,24,23.00
2013,07,27,17,25,22.90
2013,07,27,17,26,22.90
2013,07,27,17,27,22.90
2013,07,27,17,28,22.80
2013,07,27,17,29,22.80
2013,07,27,17,30,22.90
2013,07,27,17,31,22.90
2013,07,27,17,32,22.90
2013,07,27,17,33,22.90
2013,07,27,17,34,22.90
2013,07,27,17,35,22.90
2013,07,27,17,36,22.90
2013,07,27,17,37,22.90
2013,07,27,17,38,22.90
2013,07,27,17,39,23.10
2013,07,27,17,40,23.20
2013,07,27,17,41,23.20
2013,07,27,17,42,23.30
2013,07,27,17,43,23.30
2013,07,27,17,44,23.30
2013,07,27,17,45,23.30
2013,07,27,17,46,23.40
2013,07,27,17,47,23.40
2013,07,27,17,48,23.40
2013,07,27,17,49,23.40
2013,07,27,17,50,23.40
2013,07,27,17,51,23.40
2013,07,27,17,52,23.40
2013,07,27,17,53,23.30
2013,07,27,17,54,23.30
2013,07,27,17,55,23.30
2013,07,27,17,56,23.40
2013,07,27,17,57,23.50
2013,07,27,17,58,23.60
2013,07,27,17,59,23.70
2013,07,27,18,00,23.70
2013,07,27,18,01,23.60
2013,07,27,18,02,23.40
2013,07,27,18,03,23.30
2013,07,27,18,04,23.30
2013,07,27,18,05,23.30
2013,07,27,18,06,23.30
2013,07,27,18,07,23.30
2013,07,27,18,08,23.20
2013,07,27,18,09,23.20
2013,07,27,18,10,23.10
2013,07,27,18,11,23.00
2013,07,27,18,12,22.90
2013,07,27,18,13,22.90
2013,07,27,18,14,22.90
2013,07,27,18,15,22.90
2013,07,27,18,16,22.90
2013,07,27,18,17,22.80
2013,07,27,18,18,22.70
2013,07,27,18,19,22.60
2013,07,27,18,20,22.60
2013,07,27,18,21,22.60
2013,07,27,18,22,22.50
2013,07,27,18,23,22.50
2013,07,27,18,24,22.40
2013,07,27,18,25,22.40
2013,07,27,18,26,22.40
2013,07,27,18,27,22.40
2013,07,27,18,28,22.40
2013,07,27,18,29,22.40
2013,07,27,18,30,22.30
2013,07,27,18,31,22.30
2013,07,27,18,32,22.30
2013,07,27,18,33,22.40
2013,07,27,18,34,22.30
2013,07,27,18,35,22.30
2013,07,27,18,36,22.20
2013,07,27,18,37,22.20
2013,07,27,18,38,22.10
2013,07,27,18,39,22.00
2013,07,27,18,40,22.00
2013,07,27,18,41,22.00
2013,07,27,18,42,22.00
2013,07,27,18,43,21.80
2013,07,27,18,44,21.70
2013,07,27,18,45,21.60
2013,07,27,18,46,21.40
2013,07,27,18,47,21.30
2013,07,27,18,48,21.20
2013,07,27,18,49,21.10
2013,07,27,18,50,21.00
2013,07,27,18,51,20.90
2013,07,27,18,52,20.80
2013,07,27,18,53,20.70
2013,07,27,18,54,20.60
2013,07,27,18,55,20.50
2013,07,27,18,56,20.40
2013,07,27,18,57,20.40
2013,07,27,18,58,20.30
2013,07,27,18,59,20.30
2013,07,27,19,00,20.20
2013,07,27,19,01,20.20
2013,07,27,19,02,20.20
2013,07,27,19,03,20.20
2013,07,27,19,04,20.20
2013,07,27,19,05,20.20
2013,07,27,19,06,20.10
2013,07,27,19,07,20.10
2013,07,27,19,08,20.10
2013,07,27,19,09,20.10
2013,07,27,19,10,19.90
2013,07,27,19,11,19.90
2013,07,27,19,12,19.90
2013,07,27,19,13,19.90
2013,07,27,19,14,19.90
2013,07,27,19,15,19.80
2013,07,27,19,16,19.80
2013,07,27,19,17,19.80
2013,07,27,19,18,19.80
2013,07,27,19,19,19.80
2013,07,27,19,20,19.80
2013,07,27,19,21,19.90
2013,07,27,19,22,19.80
2013,07,27,19,23,19.80
2013,07,27,19,24,19.80
2013,07,27,19,25,19.80
2013,07,27,19,26,19.80
2013,07,27,19,27,19.80
2013,07,27,19,28,19.80
2013,07,27,19,29,19.70
2013,07,27,19,30,19.70
2013,07,27,19,31,19.70
2013,07,27,19,32,19.70
2013,07,27,19,33,19.70
2013,07,27,19,34,19.70
2013,07,27,19,35,19.70
2013,07,27,19,36,19.70
2013,07,27,19,37,19.60
2013,07,27,19,38,19.60
2013,07,27,19,39,19.50
2013,07,27,19,40,19.50
2013,07,27,19,41,19.40
2013,07,27,19,42,19.40
2013,07,27,19,43,19.30
2013,07,27,19,44,19.30
2013,07,27,19,45,19.20
2013,07,27,19,46,19.20
2013,07,27,19,47,19.10
2013,07,27,19,48,19.10
2013,07,27,19,49,19.10
2013,07,27,19,50,19.10
2013,07,27,19,51,19.10
2013,07,27,19,52,19.00
2013,07,27,19,53,18.90
2013,07,27,19,54,18.90
2013,07,27,19,55,18.90
2013,07,27,19,56,18.90
2013,07,27,19,57,18.90
2013,07,27,19,58,18.80
2013,07,27,19,59,18.80
2013,07,27,20,00,18.70
2013,07,27,20,01,18.70
2013,07,27,20,02,18.60
2013,07,27,20,03,18.60
2013,07,27,20,04,18.50
2013,07,27,20,05,18.50
2013,07,27,20,06,18.50
2013,07,27,20,07,18.40
2013,07,27,20,08,18.40
2013,07,27,20,09,18.40
2013,07,27,20,10,18.40
2013,07,27,20,11,18.30
2013,07,27,20,12,18.30
2013,07,27,20,13,18.30
2013,07,27,20,14,18.20
2013,07,27,20,15,18.20
2013,07,27,20,16,18.20
2013,07,27,20,17,18.20
2013,07,27,20,18,18.20
2013,07,27,20,19,18.20
2013,07,27,20,20,18.20
2013,07,27,20,21,18.20
2013,07,27,20,22,18.20
2013,07,27,20,23,18.20
2013,07,27,20,24,18.20
